[[{"header":{"parameterUnit":"m.s-1","parameterCategory":1,"la1":30.2991,"la2":30.254,"lo1":-89.0895,"lo2":-89.0444,"dy":0.0017,"dx":0.0017,"nx":28,"ny":28,"refTime":"2024-05-09T21:00:00:Z","depth":0,"parameterNumber":2,"parameterNumberName":"U-component_of_WINDS"},"data":[0,0,0,0,0,0,0,0,0,0,0,0,0,0,0,0,0,0,0,0,0,0,0,0,0,0,0,0,0,0,0,0,0,0,0,0,0,0,0,0,0,0,0,0,0,0,0,0,0,0,0,0,0,0,0,0,0,0,-0.9574,-0.9574,0,-0.9506,-0.9505,-0.9504,-0.9431,-0.943,-0.9429,-0.9428,-0.9359,-0.9358,-0.9357,0,0,0,0,0,0,0,0,0,0,0,0,0,-0.9642,-0.9641,-0.9574,-0.9574,-0.9573,-0.9506,-0.9505,-0.9504,-0.9431,-0.943,-0.9429,-0.9428,-0.9359,-0.9358,-0.9357,0,0,0,0,0,0,0,0,0,0,0,0,0,-0.9597,-0.9641,-0.9575,-0.9528,-0.9524,-0.9506,-0.9505,-0.9504,-0.9432,-0.943,-0.9429,-0.9427,-0.936,-0.9358,-0.9357,-0.938,0,0,-0.9353,-0.9352,0,0,0,0,0,0,0,0,-0.96,-0.9595,-0.9536,-0.9531,-0.9526,-0.9475,-0.9503,-0.9462,-0.9432,-0.9467,-0.9428,-0.9426,-0.9399,-0.9394,-0.9385,-0.9377,-0.9374,-0.9353,-0.9352,-0.9351,-0.9351,0,0,0,0,0,0,0,-0.9603,-0.9597,-0.9547,-0.9535,-0.9529,-0.9511,-0.9503,-0.9495,-0.9442,-0.9463,-0.9458,-0.9451,-0.9396,-0.9386,-0.9383,-0.9373,-0.9353,-0.9352,-0.9351,-0.935,-0.9376,-0.9378,0,0,0,0,0,0,-0.9613,-0.96,-0.9549,-0.9545,-0.956,-0.9511,-0.9502,-0.9493,-0.9442,-0.9433,-0.9452,-0.9448,-0.9389,-0.9384,-0.938,-0.9401,-0.9351,-0.935,-0.9349,-0.9375,-0.9377,-0.9378,0,0,0,0,0,0,-0.9615,-0.9609,-0.9552,-0.9571,-0.9562,-0.9511,-0.9502,-0.9493,-0.9483,-0.9434,-0.9424,-0.9452,-0.9388,-0.9382,-0.938,-0.9398,-0.935,-0.9348,-0.9373,-0.9376,-0.9378,-0.9445,0,0,0,0,0,0,-0.9617,-0.961,-0.9619,-0.9572,-0.9562,-0.9553,-0.9503,-0.9492,-0.9481,-0.9474,-0.9431,-0.9422,-0.9386,-0.9382,-0.9378,-0.9395,-0.9347,-0.9371,-0.9374,-0.9377,-0.944,-0.9449,-0.9456,0,0,0,0,0,-0.962,-0.9641,-0.9619,-0.9614,-0.9571,-0.9554,-0.9549,-0.9506,-0.9483,-0.949,-0.9458,-0.9424,-0.9397,-0.9382,-0.9378,-0.9394,-0.937,-0.9373,-0.9377,-0.9437,-0.9447,-0.9456,0,0,0,0,0,0,-0.9692,-0.9634,-0.9609,-0.9616,-0.9591,-0.9542,-0.955,-0.9519,-0.95,-0.9495,-0.9443,-0.9434,-0.9437,-0.9416,-0.9401,-0.9412,-0.9378,-0.9381,-0.9426,-0.9435,-0.9443,-0.9447,-0.9346,0,0,0,0,0,-0.9709,-0.97,-0.965,-0.9661,-0.9649,-0.9602,-0.9593,-0.9563,-0.9535,-0.9523,-0.9491,-0.9465,-0.945,-0.9442,-0.9426,-0.9438,-0.9426,-0.9446,-0.9454,-0.9461,-0.9463,-0.9465,-0.9473,-0.9389,-0.9389,-0.9389,0,0,-0.9743,-0.971,-0.9708,-0.9674,-0.9651,-0.9642,-0.9594,-0.9587,-0.958,-0.9523,-0.9517,-0.9493,-0.9461,-0.9465,-0.9465,-0.9447,-0.9483,-0.9465,-0.9471,-0.9469,-0.9469,-0.9477,-0.9484,-0.9392,-0.9391,-0.9391,0,0,-0.9801,-0.9776,-0.9781,-0.9758,-0.9723,-0.9691,-0.9693,-0.9648,-0.963,-0.9624,-0.958,-0.9571,-0.9547,-0.9525,-0.951,-0.9558,-0.9525,-0.9555,-0.9594,-0.9597,-0.9603,-0.9609,-0.9623,-0.963,-0.9557,-0.9558,-0.9558,0,-0.9848,-0.9833,-0.9788,-0.9783,-0.9769,-0.9716,-0.972,-0.97,-0.9662,-0.9653,-0.9633,-0.96,-0.9575,-0.9572,-0.9583,-0.9574,-0.9573,-0.9558,-0.9606,-0.9611,-0.9615,-0.9629,-0.9635,-0.9561,-0.9561,-0.956,-0.956,0,-0.9891,-0.9882,-0.989,-0.9853,-0.984,-0.984,-0.9794,-0.9786,-0.9757,-0.9727,-0.9721,-0.9688,-0.9663,-0.9661,-0.9633,-0.9653,-0.9643,-0.9616,-0.958,-0.9628,-0.9639,-0.9644,-0.9566,-0.9565,-0.9564,-0.9563,0,0,-0.9992,-0.9929,-0.9933,-0.9914,-0.9871,-0.9862,-0.986,-0.9835,-0.9828,-0.9803,-0.9798,-0.9779,-0.9752,-0.9736,-0.9705,-0.9708,-0.9744,-0.9679,-0.9678,-0.969,-0.9762,-0.9781,-0.9788,-0.9723,-0.9724,-0.9724,-0.9764,0,-1.004,-1.0031,-0.9989,-0.9992,-0.9982,-0.9931,-0.9928,-0.9901,-0.9873,-0.986,-0.9829,-0.9815,-0.9783,-0.9772,-0.9773,-0.974,-0.9758,-0.9737,-0.9716,-0.9716,-0.9724,-0.9794,-0.9815,-0.9854,-0.9768,-0.9769,-0.977,0,-1.0095,-1.0072,-1.0074,-1.0029,-1.0023,-1.0021,-0.9993,-0.9982,-0.995,-0.9929,-0.991,-0.9875,-0.9868,-0.9837,-0.9825,-0.9812,-0.9801,-0.9784,-0.9784,-0.9779,-0.9744,-0.9789,-0.9865,-0.987,-0.9777,-0.9776,-0.9776,0,-1.0165,-1.0135,-1.0131,-1.0118,-1.0066,-1.0065,-1.0044,-1.001,-0.9997,-0.9973,-0.9964,-0.9941,-0.9927,-0.9909,-0.9868,-0.9849,-0.9861,-0.9826,-0.9842,-0.9843,-0.9845,-0.9845,-0.9919,-0.9842,-0.9842,-0.9842,-0.9842,0,-1.0222,-1.0224,-1.0162,-1.016,-1.016,-1.0113,-1.0114,-1.0088,-1.0058,-1.0049,-1.0005,-0.9997,-0.9944,-0.993,-0.9898,-0.9892,-0.9888,-0.987,-0.9861,-0.9872,-0.9874,-0.9863,-0.9859,-0.9844,-0.9843,-0.9843,-0.9843,0,-1.03,-1.0258,-1.025,-1.0202,-1.0189,-1.0192,-1.0149,-1.0145,-1.0114,-1.0103,-1.0098,-1.005,-1.0031,-0.9988,-0.9959,-0.9937,-0.9938,-0.9924,-0.9949,-0.9943,-0.996,-0.9958,-1.0027,-1.0033,-0.9956,-0.9956,-0.9957,0,-1.0337,-1.0338,-1.0288,-1.0279,-1.0259,-1.0244,-1.023,-1.0184,-1.0171,-1.0133,-1.0133,-1.011,-1.0089,-1.0062,-1.0024,-1.0,-0.9983,-1.0009,-0.9979,-0.999,-0.998,-0.998,-0.9979,-1.0015,-1.0016,-1.0017,-1.0018,0,-1.0408,-1.0387,-1.0369,-1.0343,-1.0327,-1.0304,-1.0279,-1.0274,-1.0221,-1.0209,-1.0189,-1.0173,-1.0141,-1.0119,-1.0089,-1.0066,-1.0033,-1.0028,-1.0029,-1.004,-1.0054,-1.0044,-0.9964,-1.0026,-1.0025,-1.0024,-1.0024,-1.0024,-1.0465,-1.0462,-1.0426,-1.0407,-1.0383,-1.036,-1.0352,-1.032,-1.0302,-1.0273,-1.0246,-1.0228,-1.0194,-1.0151,-1.013,-1.0115,-1.0098,-1.0102,-1.0102,-1.0103,-1.0107,-1.0058,-1.0109,-1.0109,-1.0109,-1.0109,-1.0108,0,-1.0531,-1.0505,-1.0488,-1.0453,-1.0438,-1.0408,-1.0378,-1.0367,-1.0351,-1.0322,-1.0302,-1.0278,-1.0256,-1.0216,-1.019,-1.0185,-1.0169,-1.0179,-1.0178,-1.0173,-1.0125,-1.0124,-1.0193,-1.0193,-1.0193,-1.0193,-1.0193,-1.0193,-1.0563,-1.0556,-1.0531,-1.051,-1.0485,-1.0466,-1.0451,-1.0429,-1.0406,-1.0381,-1.0362,-1.0336,-1.0302,-1.0273,-1.025,-1.0239,-1.023,-1.0246,-1.023,-1.0185,-1.0177,-1.0169,-1.0168,-1.0245,-1.0245,-1.0279,-1.0279,-1.0279]},{"header":{"parameterUnit":"m.s-1","parameterCategory":1,"la1":30.2991,"la2":30.254,"lo1":-89.0895,"lo2":-89.0444,"dy":0.0017,"dx":0.0017,"nx":28,"ny":28,"refTime":"2024-05-09T21:00:00:Z","depth":0,"parameterNumber":3,"parameterNumberName":"V-component_of_WINDS"},"data":[0,0,0,0,0,0,0,0,0,0,0,0,0,0,0,0,0,0,0,0,0,0,0,0,0,0,0,0,0,0,0,0,0,0,0,0,0,0,0,0,0,0,0,0,0,0,0,0,0,0,0,0,0,0,0,0,0,0,-1.5773,-1.5773,0,-1.578,-1.578,-1.578,-1.588,-1.5883,-1.5885,-1.5888,-1.589,-1.5888,-1.5885,0,0,0,0,0,0,0,0,0,0,0,0,0,-1.5845,-1.5844,-1.5773,-1.5773,-1.5773,-1.578,-1.578,-1.578,-1.588,-1.5883,-1.5886,-1.5889,-1.5891,-1.5888,-1.5885,0,0,0,0,0,0,0,0,0,0,0,0,0,-1.5829,-1.5843,-1.5773,-1.5824,-1.5829,-1.578,-1.578,-1.578,-1.5879,-1.5883,-1.5887,-1.589,-1.5892,-1.5888,-1.5885,-1.5787,0,0,-1.5874,-1.5873,0,0,0,0,0,0,0,0,-1.583,-1.5826,-1.5816,-1.582,-1.5826,-1.5833,-1.5807,-1.5782,-1.5878,-1.586,-1.5888,-1.5892,-1.5868,-1.5866,-1.5859,-1.5787,-1.5787,-1.5874,-1.5872,-1.587,-1.5869,0,0,0,0,0,0,0,-1.5831,-1.5827,-1.5776,-1.5816,-1.5822,-1.5846,-1.5848,-1.5802,-1.5842,-1.5862,-1.5869,-1.5869,-1.5871,-1.5862,-1.586,-1.5787,-1.5874,-1.5871,-1.5869,-1.5867,-1.564,-1.5636,0,0,0,0,0,0,-1.5825,-1.5827,-1.5776,-1.5776,-1.5837,-1.5842,-1.5844,-1.5827,-1.5843,-1.5849,-1.5865,-1.5873,-1.5866,-1.5864,-1.586,-1.575,-1.587,-1.5867,-1.5865,-1.5643,-1.5639,-1.5634,0,0,0,0,0,0,-1.5827,-1.582,-1.5775,-1.5804,-1.58,-1.5837,-1.5816,-1.5825,-1.5817,-1.5846,-1.5853,-1.5849,-1.5869,-1.5865,-1.5806,-1.5751,-1.5865,-1.5862,-1.5648,-1.5642,-1.5637,-1.5526,0,0,0,0,0,0,-1.5828,-1.582,-1.5783,-1.5802,-1.5798,-1.572,-1.5813,-1.5822,-1.5811,-1.5821,-1.5833,-1.5838,-1.5872,-1.581,-1.5802,-1.5749,-1.586,-1.5653,-1.5645,-1.5638,-1.5535,-1.5517,-1.5502,0,0,0,0,0,-1.583,-1.5749,-1.578,-1.5773,-1.5752,-1.5717,-1.5715,-1.5757,-1.5806,-1.5769,-1.5789,-1.5838,-1.5759,-1.5803,-1.5795,-1.574,-1.5657,-1.5648,-1.5639,-1.5542,-1.5521,-1.5502,0,0,0,0,0,0,-1.5719,-1.5752,-1.5787,-1.571,-1.571,-1.5734,-1.5689,-1.5732,-1.5717,-1.5727,-1.5778,-1.578,-1.5713,-1.572,-1.577,-1.5648,-1.5717,-1.5706,-1.5646,-1.5626,-1.5609,-1.5609,-1.5857,0,0,0,0,0,-1.5686,-1.5655,-1.5686,-1.5614,-1.5613,-1.5651,-1.5637,-1.567,-1.5672,-1.5672,-1.5687,-1.5685,-1.5662,-1.5644,-1.5622,-1.5536,-1.5542,-1.5495,-1.5478,-1.5465,-1.5455,-1.5414,-1.5394,-1.5605,-1.5605,-1.5605,0,0,-1.5616,-1.5631,-1.5607,-1.5593,-1.5597,-1.5564,-1.565,-1.561,-1.5587,-1.5665,-1.5611,-1.5622,-1.5625,-1.5553,-1.5522,-1.5557,-1.5398,-1.5453,-1.5442,-1.544,-1.5403,-1.5383,-1.5365,-1.5599,-1.56,-1.5601,0,0,-1.5473,-1.548,-1.5424,-1.5428,-1.5434,-1.5461,-1.5447,-1.5466,-1.5477,-1.5424,-1.5484,-1.5456,-1.5412,-1.5413,-1.5407,-1.527,-1.5316,-1.5261,-1.5176,-1.5136,-1.5119,-1.5105,-1.5059,-1.5041,-1.5251,-1.5251,-1.5251,0,-1.5385,-1.534,-1.5389,-1.5348,-1.5341,-1.5413,-1.5357,-1.5358,-1.5356,-1.5349,-1.5389,-1.5339,-1.5345,-1.5276,-1.5244,-1.5235,-1.5223,-1.526,-1.5118,-1.5104,-1.5091,-1.5048,-1.503,-1.5245,-1.5245,-1.5246,-1.5247,0,-1.5233,-1.5201,-1.5154,-1.5155,-1.5143,-1.5093,-1.5136,-1.5117,-1.5152,-1.5175,-1.5122,-1.5133,-1.5118,-1.5104,-1.5135,-1.5041,-1.5063,-1.5109,-1.5179,-1.5064,-1.5024,-1.5008,-1.5236,-1.5238,-1.524,-1.5241,0,0,-1.5017,-1.505,-1.5032,-1.5035,-1.505,-1.5026,-1.4982,-1.4969,-1.4954,-1.4951,-1.4916,-1.488,-1.4925,-1.4918,-1.4952,-1.4916,-1.4811,-1.4968,-1.4969,-1.494,-1.4711,-1.4677,-1.4657,-1.4842,-1.4839,-1.4836,-1.4712,0,-1.4882,-1.481,-1.4855,-1.4776,-1.4749,-1.4819,-1.4781,-1.4786,-1.4807,-1.4787,-1.4809,-1.4784,-1.4843,-1.4841,-1.4809,-1.4831,-1.4766,-1.484,-1.4811,-1.4809,-1.481,-1.4636,-1.4599,-1.4481,-1.4696,-1.4694,-1.4692,0,-1.4713,-1.4708,-1.4627,-1.4652,-1.4642,-1.4607,-1.4602,-1.4581,-1.459,-1.4608,-1.4603,-1.4647,-1.4607,-1.4676,-1.4622,-1.4671,-1.4662,-1.4672,-1.4668,-1.4668,-1.4744,-1.4633,-1.4444,-1.4427,-1.4667,-1.4669,-1.4671,0,-1.4568,-1.454,-1.4489,-1.4489,-1.4516,-1.4491,-1.4501,-1.4513,-1.4504,-1.4499,-1.4495,-1.4483,-1.4478,-1.4469,-1.4509,-1.4555,-1.4451,-1.4522,-1.4465,-1.4464,-1.444,-1.4442,-1.425,-1.4431,-1.4432,-1.4432,-1.4432,0,-1.4413,-1.4361,-1.4425,-1.4394,-1.4339,-1.4392,-1.4336,-1.4354,-1.4365,-1.4339,-1.4398,-1.4372,-1.4426,-1.4406,-1.4437,-1.439,-1.4386,-1.44,-1.4409,-1.4396,-1.4394,-1.4391,-1.4401,-1.4427,-1.4428,-1.4429,-1.443,0,-1.4241,-1.4281,-1.4231,-1.4263,-1.427,-1.4228,-1.4256,-1.4229,-1.4255,-1.4222,-1.4217,-1.4257,-1.4238,-1.4277,-1.4261,-1.4282,-1.4217,-1.4237,-1.4214,-1.4221,-1.4163,-1.4169,-1.3964,-1.3941,-1.4135,-1.4133,-1.4132,0,-1.414,-1.4103,-1.4132,-1.412,-1.4128,-1.4107,-1.41,-1.4152,-1.4141,-1.4151,-1.4123,-1.4109,-1.41,-1.4065,-1.4093,-1.4083,-1.4105,-1.4034,-1.4103,-1.4093,-1.4107,-1.411,-1.4108,-1.4019,-1.4017,-1.4015,-1.4014,0,-1.3957,-1.3981,-1.3969,-1.3965,-1.3956,-1.3954,-1.3957,-1.3944,-1.3999,-1.3985,-1.3967,-1.396,-1.3947,-1.3933,-1.3929,-1.394,-1.3986,-1.3992,-1.3979,-1.3965,-1.3955,-1.3963,-1.4177,-1.3996,-1.3998,-1.3999,-1.4,-1.4001,-1.382,-1.3792,-1.381,-1.3796,-1.3804,-1.3807,-1.3785,-1.381,-1.3797,-1.3792,-1.3823,-1.3799,-1.3812,-1.3813,-1.3819,-1.3801,-1.3833,-1.3813,-1.3808,-1.3803,-1.3795,-1.3957,-1.38,-1.3801,-1.3801,-1.3802,-1.3802,0,-1.3643,-1.3659,-1.3646,-1.3651,-1.364,-1.3688,-1.3694,-1.3682,-1.3661,-1.3671,-1.3663,-1.3644,-1.3632,-1.366,-1.3653,-1.3633,-1.3655,-1.3629,-1.3632,-1.3635,-1.3765,-1.3779,-1.3613,-1.3613,-1.3613,-1.3613,-1.3613,-1.3613,-1.355,-1.3507,-1.3533,-1.3495,-1.3512,-1.3491,-1.3491,-1.3494,-1.3503,-1.348,-1.3472,-1.3491,-1.3509,-1.3504,-1.3496,-1.3505,-1.35,-1.3468,-1.3484,-1.3606,-1.3625,-1.3642,-1.3656,-1.3466,-1.3466,-1.3356,-1.3355,-1.3354]}]]